Year,Month,Day,Hour,Minute,Value (Times are PST for temperature in C)
2016,04,20,00,00,14.20
2016,04,20,00,01,14.20
2016,04,20,00,02,14.20
2016,04,20,00,03,14.20
2016,04,20,00,04,14.20
2016,04,20,00,05,14.20
2016,04,20,00,06,14.10
2016,04,20,00,07,14.10
2016,04,20,00,08,14.00
2016,04,20,00,09,14.00
2016,04,20,00,10,14.00
2016,04,20,00,11,14.00
2016,04,20,00,12,13.90
2016,04,20,00,13,13.90
2016,04,20,00,14,13.90
2016,04,20,00,15,13.90
2016,04,20,00,16,13.80
2016,04,20,00,17,13.80
2016,04,20,00,18,13.80
2016,04,20,00,19,13.80
2016,04,20,00,20,13.80
2016,04,20,00,21,13.80
2016,04,20,00,22,13.70
2016,04,20,00,23,13.70
2016,04,20,00,24,13.70
2016,04,20,00,25,13.70
2016,04,20,00,26,13.70
2016,04,20,00,27,13.70
2016,04,20,00,28,13.70
2016,04,20,00,29,13.70
2016,04,20,00,30,13.70
2016,04,20,00,31,13.70
2016,04,20,00,32,13.70
2016,04,20,00,33,13.70
2016,04,20,00,34,13.70
2016,04,20,00,35,13.70
2016,04,20,00,36,13.70
2016,04,20,00,37,13.70
2016,04,20,00,38,13.70
2016,04,20,00,39,13.70
2016,04,20,00,40,13.60
2016,04,20,00,41,13.60
2016,04,20,00,42,13.60
2016,04,20,00,43,13.60
2016,04,20,00,44,13.60
2016,04,20,00,45,13.60
2016,04,20,00,46,13.60
2016,04,20,00,47,13.60
2016,04,20,00,48,13.60
2016,04,20,00,49,13.50
2016,04,20,00,50,13.50
2016,04,20,00,51,13.50
2016,04,20,00,52,13.50
2016,04,20,00,53,13.50
2016,04,20,00,54,13.50
2016,04,20,00,55,13.50
2016,04,20,00,56,13.50
2016,04,20,00,57,13.50
2016,04,20,00,58,13.40
2016,04,20,00,59,13.40
2016,04,20,01,00,13.40
2016,04,20,01,01,13.40
2016,04,20,01,02,13.30
2016,04,20,01,03,13.30
2016,04,20,01,04,13.30
2016,04,20,01,05,13.30
2016,04,20,01,06,13.30
2016,04,20,01,07,13.30
2016,04,20,01,08,13.30
2016,04,20,01,09,13.30
2016,04,20,01,10,13.20
2016,04,20,01,11,13.20
2016,04,20,01,12,13.20
2016,04,20,01,13,13.20
2016,04,20,01,14,13.20
2016,04,20,01,15,13.20
2016,04,20,01,16,13.20
2016,04,20,01,17,13.20
2016,04,20,01,18,13.20
2016,04,20,01,19,13.20
2016,04,20,01,20,13.20
2016,04,20,01,21,13.20
2016,04,20,01,22,13.20
2016,04,20,01,23,13.10
2016,04,20,01,24,13.10
2016,04,20,01,25,13.10
2016,04,20,01,26,13.10
2016,04,20,01,27,13.10
2016,04,20,01,28,13.10
2016,04,20,01,29,13.00
2016,04,20,01,30,13.00
2016,04,20,01,31,13.00
2016,04,20,01,32,13.00
2016,04,20,01,33,13.00
2016,04,20,01,34,13.00
2016,04,20,01,35,12.90
2016,04,20,01,36,12.90
2016,04,20,01,37,12.90
2016,04,20,01,38,12.90
2016,04,20,01,39,12.90
2016,04,20,01,40,12.90
2016,04,20,01,41,12.90
2016,04,20,01,42,12.90
2016,04,20,01,43,12.90
2016,04,20,01,44,12.90
2016,04,20,01,45,12.90
2016,04,20,01,46,12.90
2016,04,20,01,47,12.90
2016,04,20,01,48,12.90
2016,04,20,01,49,12.90
2016,04,20,01,50,12.90
2016,04,20,01,51,12.80
2016,04,20,01,52,12.80
2016,04,20,01,53,12.80
2016,04,20,01,54,12.80
2016,04,20,01,55,12.80
2016,04,20,01,56,12.70
2016,04,20,01,57,12.70
2016,04,20,01,58,12.70
2016,04,20,01,59,12.60
2016,04,20,02,00,12.60
2016,04,20,02,01,12.60
2016,04,20,02,02,12.60
2016,04,20,02,03,12.50
2016,04,20,02,04,12.50
2016,04,20,02,05,12.50
2016,04,20,02,06,12.50
2016,04,20,02,07,12.50
2016,04,20,02,08,12.50
2016,04,20,02,09,12.50
2016,04,20,02,10,12.50
2016,04,20,02,11,12.50
2016,04,20,02,12,12.50
2016,04,20,02,13,12.50
2016,04,20,02,14,12.50
2016,04,20,02,15,12.50
2016,04,20,02,16,12.40
2016,04,20,02,17,12.40
2016,04,20,02,18,12.40
2016,04,20,02,19,12.40
2016,04,20,02,20,12.40
2016,04,20,02,21,12.40
2016,04,20,02,22,12.30
2016,04,20,02,23,12.30
2016,04,20,02,24,12.30
2016,04,20,02,25,12.30
2016,04,20,02,26,12.30
2016,04,20,02,27,12.30
2016,04,20,02,28,12.30
2016,04,20,02,29,12.30
2016,04,20,02,30,12.30
2016,04,20,02,31,12.30
2016,04,20,02,32,12.30
2016,04,20,02,33,12.30
2016,04,20,02,34,12.30
2016,04,20,02,35,12.30
2016,04,20,02,36,12.30
2016,04,20,02,37,12.30
2016,04,20,02,38,12.30
2016,04,20,02,39,12.20
2016,04,20,02,40,12.20
2016,04,20,02,41,12.20
2016,04,20,02,42,12.20
2016,04,20,02,43,12.20
2016,04,20,02,44,12.20
2016,04,20,02,45,12.10
2016,04,20,02,46,12.10
2016,04,20,02,47,12.10
2016,04,20,02,48,12.10
2016,04,20,02,49,12.10
2016,04,20,02,50,12.00
2016,04,20,02,51,12.00
2016,04,20,02,52,12.00
2016,04,20,02,53,12.00
2016,04,20,02,54,11.90
2016,04,20,02,55,11.90
2016,04,20,02,56,11.90
2016,04,20,02,57,11.90
2016,04,20,02,58,11.90
2016,04,20,02,59,11.90
2016,04,20,03,00,11.90
2016,04,20,03,01,11.90
2016,04,20,03,02,11.90
2016,04,20,03,03,11.90
2016,04,20,03,04,11.90
2016,04,20,03,05,11.90
2016,04,20,03,06,11.90
2016,04,20,03,07,11.90
2016,04,20,03,08,11.90
2016,04,20,03,09,11.90
2016,04,20,03,10,11.90
2016,04,20,03,11,11.90
2016,04,20,03,12,11.80
2016,04,20,03,13,11.80
2016,04,20,03,14,11.80
2016,04,20,03,15,11.80
2016,04,20,03,16,11.80
2016,04,20,03,17,11.80
2016,04,20,03,18,11.80
2016,04,20,03,19,11.80
2016,04,20,03,20,11.80
2016,04,20,03,21,11.80
2016,04,20,03,22,11.80
2016,04,20,03,23,11.80
2016,04,20,03,24,11.70
2016,04,20,03,25,11.70
2016,04,20,03,26,11.70
2016,04,20,03,27,11.70
2016,04,20,03,28,11.70
2016,04,20,03,29,11.70
2016,04,20,03,30,11.60
2016,04,20,03,31,11.60
2016,04,20,03,32,11.60
2016,04,20,03,33,11.60
2016,04,20,03,34,11.60
2016,04,20,03,35,11.60
2016,04,20,03,36,11.60
2016,04,20,03,37,11.60
2016,04,20,03,38,11.50
2016,04,20,03,39,11.40
2016,04,20,03,40,11.40
2016,04,20,03,41,11.40
2016,04,20,03,42,11.40
2016,04,20,03,43,11.40
2016,04,20,03,44,11.40
2016,04,20,03,45,11.40
2016,04,20,03,46,11.40
2016,04,20,03,47,11.40
2016,04,20,03,48,11.40
2016,04,20,03,49,11.30
2016,04,20,03,50,11.30
2016,04,20,03,51,11.30
2016,04,20,03,52,11.30
2016,04,20,03,53,11.30
2016,04,20,03,54,11.30
2016,04,20,03,55,11.30
2016,04,20,03,56,11.30
2016,04,20,03,57,11.30
2016,04,20,03,58,11.30
2016,04,20,03,59,11.30
2016,04,20,04,00,11.30
2016,04,20,04,01,11.30
2016,04,20,04,02,11.30
2016,04,20,04,03,11.30
2016,04,20,04,04,11.30
2016,04,20,04,05,11.20
2016,04,20,04,06,11.20
2016,04,20,04,07,11.20
2016,04,20,04,08,11.20
2016,04,20,04,09,11.20
2016,04,20,04,10,11.20
2016,04,20,04,11,11.20
2016,04,20,04,12,11.20
2016,04,20,04,13,11.20
2016,04,20,04,14,11.10
2016,04,20,04,15,11.10
2016,04,20,04,16,11.10
2016,04,20,04,17,11.10
2016,04,20,04,18,11.10
2016,04,20,04,19,11.10
2016,04,20,04,20,11.10
2016,04,20,04,21,11.10
2016,04,20,04,22,11.10
2016,04,20,04,23,11.10
2016,04,20,04,24,11.10
2016,04,20,04,25,11.10
2016,04,20,04,26,11.10
2016,04,20,04,27,11.10
2016,04,20,04,28,11.10
2016,04,20,04,29,11.10
2016,04,20,04,30,11.10
2016,04,20,04,31,11.10
2016,04,20,04,32,11.00
2016,04,20,04,33,10.90
2016,04,20,04,34,10.90
2016,04,20,04,35,10.90
2016,04,20,04,36,10.90
2016,04,20,04,37,10.90
2016,04,20,04,38,10.90
2016,04,20,04,39,10.90
2016,04,20,04,40,11.10
2016,04,20,04,41,11.10
2016,04,20,04,42,11.10
2016,04,20,04,43,11.10
2016,04,20,04,44,11.10
2016,04,20,04,45,11.10
2016,04,20,04,46,11.10
2016,04,20,04,47,11.10
2016,04,20,04,48,11.10
2016,04,20,04,49,11.10
2016,04,20,04,50,11.10
2016,04,20,04,51,11.10
2016,04,20,04,52,11.10
2016,04,20,04,53,11.10
2016,04,20,04,54,11.10
2016,04,20,04,55,11.10
2016,04,20,04,56,11.10
2016,04,20,04,57,11.10
2016,04,20,04,58,11.10
2016,04,20,04,59,11.10
2016,04,20,05,00,11.10
2016,04,20,05,01,11.10
2016,04,20,05,02,11.10
2016,04,20,05,03,11.10
2016,04,20,05,04,11.10
2016,04,20,05,05,11.10
2016,04,20,05,06,11.10
2016,04,20,05,07,11.10
2016,04,20,05,08,11.10
2016,04,20,05,09,11.10
2016,04,20,05,10,11.10
2016,04,20,05,11,11.10
2016,04,20,05,12,10.90
2016,04,20,05,13,10.90
2016,04,20,05,14,10.90
2016,04,20,05,15,10.90
2016,04,20,05,16,10.90
2016,04,20,05,17,10.90
2016,04,20,05,18,10.90
2016,04,20,05,19,10.90
2016,04,20,05,20,10.90
2016,04,20,05,21,10.90
2016,04,20,05,22,10.90
2016,04,20,05,23,10.90
2016,04,20,05,24,10.90
2016,04,20,05,25,10.90
2016,04,20,05,26,10.90
2016,04,20,05,27,10.90
2016,04,20,05,28,10.90
2016,04,20,05,29,10.90
2016,04,20,05,30,10.90
2016,04,20,05,31,10.90
2016,04,20,05,32,10.90
2016,04,20,05,33,10.90
2016,04,20,05,34,10.90
2016,04,20,05,35,10.90
2016,04,20,05,36,10.90
2016,04,20,05,37,10.90
2016,04,20,05,38,10.90
2016,04,20,05,39,10.90
2016,04,20,05,40,10.90
2016,04,20,05,41,10.90
2016,04,20,05,42,10.90
2016,04,20,05,43,10.90
2016,04,20,05,44,10.90
2016,04,20,05,45,10.90
2016,04,20,05,46,10.90
2016,04,20,05,47,10.90
2016,04,20,05,48,10.90
2016,04,20,05,49,10.90
2016,04,20,05,50,10.90
2016,04,20,05,51,10.90
2016,04,20,05,52,10.90
2016,04,20,05,53,10.90
2016,04,20,05,54,10.90
2016,04,20,05,55,10.90
2016,04,20,05,56,10.90
2016,04,20,05,57,10.90
2016,04,20,05,58,10.90
2016,04,20,05,59,10.90
2016,04,20,06,00,10.90
2016,04,20,06,01,10.90
2016,04,20,06,02,10.90
2016,04,20,06,03,10.90
2016,04,20,06,04,10.90
2016,04,20,06,05,10.90
2016,04,20,06,06,10.90
2016,04,20,06,07,10.90
2016,04,20,06,08,10.90
2016,04,20,06,09,10.90
2016,04,20,06,10,10.90
2016,04,20,06,11,10.90
2016,04,20,06,12,10.80
2016,04,20,06,13,10.80
2016,04,20,06,14,10.80
2016,04,20,06,15,10.80
2016,04,20,06,16,10.80
2016,04,20,06,17,10.80
2016,04,20,06,18,10.80
2016,04,20,06,19,10.80
2016,04,20,06,20,10.70
2016,04,20,06,21,10.70
2016,04,20,06,22,10.70
2016,04,20,06,23,10.70
2016,04,20,06,24,10.70
2016,04,20,06,25,10.70
2016,04,20,06,26,10.70
2016,04,20,06,27,10.70
2016,04,20,06,28,10.80
2016,04,20,06,29,10.80
2016,04,20,06,30,10.80
2016,04,20,06,31,10.80
2016,04,20,06,32,10.80
2016,04,20,06,33,10.80
2016,04,20,06,34,10.90
2016,04,20,06,35,10.90
2016,04,20,06,36,10.90
2016,04,20,06,37,10.90
2016,04,20,06,38,10.90
2016,04,20,06,39,11.00
2016,04,20,06,40,11.10
2016,04,20,06,41,11.10
2016,04,20,06,42,11.10
2016,04,20,06,43,11.10
2016,04,20,06,44,11.10
2016,04,20,06,45,11.10
2016,04,20,06,46,11.10
2016,04,20,06,47,11.10
2016,04,20,06,48,11.20
2016,04,20,06,49,11.20
2016,04,20,06,50,11.30
2016,04,20,06,51,11.30
2016,04,20,06,52,11.30
2016,04,20,06,53,11.30
2016,04,20,06,54,11.30
2016,04,20,06,55,11.40
2016,04,20,06,56,11.40
2016,04,20,06,57,11.40
2016,04,20,06,58,11.40
2016,04,20,06,59,11.40
2016,04,20,07,00,11.40
2016,04,20,07,01,11.40
2016,04,20,07,02,11.40
2016,04,20,07,03,11.40
2016,04,20,07,04,11.50
2016,04,20,07,05,11.60
2016,04,20,07,06,11.60
2016,04,20,07,07,11.60
2016,04,20,07,08,11.60
2016,04,20,07,09,11.60
2016,04,20,07,10,11.70
2016,04,20,07,11,11.80
2016,04,20,07,12,11.80
2016,04,20,07,13,11.80
2016,04,20,07,14,11.90
2016,04,20,07,15,11.90
2016,04,20,07,16,12.00
2016,04,20,07,17,12.00
2016,04,20,07,18,12.10
2016,04,20,07,19,12.10
2016,04,20,07,20,12.20
2016,04,20,07,21,12.20
2016,04,20,07,22,12.20
2016,04,20,07,23,12.30
2016,04,20,07,24,12.30
2016,04,20,07,25,12.30
2016,04,20,07,26,12.30
2016,04,20,07,27,12.40
2016,04,20,07,28,12.50
2016,04,20,07,29,12.60
2016,04,20,07,30,12.70
2016,04,20,07,31,12.70
2016,04,20,07,32,12.70
2016,04,20,07,33,12.80
2016,04,20,07,34,12.80
2016,04,20,07,35,12.80
2016,04,20,07,36,12.80
2016,04,20,07,37,12.80
2016,04,20,07,38,12.80
2016,04,20,07,39,12.80
2016,04,20,07,40,12.80
2016,04,20,07,41,13.00
2016,04,20,07,42,13.10
2016,04,20,07,43,13.20
2016,04,20,07,44,13.20
2016,04,20,07,45,13.30
2016,04,20,07,46,13.30
2016,04,20,07,47,13.30
2016,04,20,07,48,13.40
2016,04,20,07,49,13.40
2016,04,20,07,50,13.40
2016,04,20,07,51,13.50
2016,04,20,07,52,13.50
2016,04,20,07,53,13.60
2016,04,20,07,54,13.60
2016,04,20,07,55,13.70
2016,04,20,07,56,13.70
2016,04,20,07,57,13.80
2016,04,20,07,58,13.90
2016,04,20,07,59,14.00
2016,04,20,08,00,14.20
2016,04,20,08,01,14.30
2016,04,20,08,02,14.40
2016,04,20,08,03,14.60
2016,04,20,08,04,14.70
2016,04,20,08,05,14.80
2016,04,20,08,06,14.90
2016,04,20,08,07,15.00
2016,04,20,08,08,15.00
2016,04,20,08,09,15.10
2016,04,20,08,10,15.10
2016,04,20,08,11,15.20
2016,04,20,08,12,15.30
2016,04,20,08,13,15.30
2016,04,20,08,14,15.40
2016,04,20,08,15,15.50
2016,04,20,08,16,15.60
2016,04,20,08,17,15.70
2016,04,20,08,18,15.80
2016,04,20,08,19,15.80
2016,04,20,08,20,15.80
2016,04,20,08,21,15.80
2016,04,20,08,22,15.80
2016,04,20,08,23,15.80
2016,04,20,08,24,15.80
2016,04,20,08,25,15.80
2016,04,20,08,26,15.80
2016,04,20,08,27,15.90
2016,04,20,08,28,15.90
2016,04,20,08,29,16.00
2016,04,20,08,30,16.10
2016,04,20,08,31,16.10
2016,04,20,08,32,16.20
2016,04,20,08,33,16.20
2016,04,20,08,34,16.30
2016,04,20,08,35,16.40
2016,04,20,08,36,16.60
2016,04,20,08,37,16.70
2016,04,20,08,38,16.80
2016,04,20,08,39,17.00
2016,04,20,08,40,17.00
2016,04,20,08,41,17.10
2016,04,20,08,42,17.30
2016,04,20,08,43,17.40
2016,04,20,08,44,17.50
2016,04,20,08,45,17.60
2016,04,20,08,46,17.60
2016,04,20,08,47,17.60
2016,04,20,08,48,17.60
2016,04,20,08,49,17.70
2016,04,20,08,50,17.70
2016,04,20,08,51,17.80
2016,04,20,08,52,17.80
2016,04,20,08,53,17.80
2016,04,20,08,54,17.80
2016,04,20,08,55,17.80
2016,04,20,08,56,17.90
2016,04,20,08,57,18.00
2016,04,20,08,58,18.10
2016,04,20,08,59,18.10
2016,04,20,09,00,18.20
2016,04,20,09,01,18.20
2016,04,20,09,02,18.20
2016,04,20,09,03,18.30
2016,04,20,09,04,18.30
2016,04,20,09,05,18.30
2016,04,20,09,06,18.30
2016,04,20,09,07,18.40
2016,04,20,09,08,18.40
2016,04,20,09,09,18.50
2016,04,20,09,10,18.50
2016,04,20,09,11,18.60
2016,04,20,09,12,18.60
2016,04,20,09,13,18.70
2016,04,20,09,14,18.70
2016,04,20,09,15,18.80
2016,04,20,09,16,18.90
2016,04,20,09,17,19.00
2016,04,20,09,18,19.10
2016,04,20,09,19,19.10
2016,04,20,09,20,19.10
2016,04,20,09,21,19.20
2016,04,20,09,22,19.30
2016,04,20,09,23,19.40
2016,04,20,09,24,19.60
2016,04,20,09,25,19.80
2016,04,20,09,26,19.90
2016,04,20,09,27,20.10
2016,04,20,09,28,20.20
2016,04,20,09,29,20.30
2016,04,20,09,30,20.40
2016,04,20,09,31,20.50
2016,04,20,09,32,20.60
2016,04,20,09,33,20.60
2016,04,20,09,34,20.70
2016,04,20,09,35,20.80
2016,04,20,09,36,20.80
2016,04,20,09,37,20.80
2016,04,20,09,38,20.90
2016,04,20,09,39,21.00
2016,04,20,09,40,21.00
2016,04,20,09,41,21.10
2016,04,20,09,42,21.20
2016,04,20,09,43,21.30
2016,04,20,09,44,21.30
2016,04,20,09,45,21.30
2016,04,20,09,46,21.40
2016,04,20,09,47,21.50
2016,04,20,09,48,21.60
2016,04,20,09,49,21.70
2016,04,20,09,50,21.90
2016,04,20,09,51,22.00
2016,04,20,09,52,22.00
2016,04,20,09,53,22.10
2016,04,20,09,54,22.20
2016,04,20,09,55,22.30
2016,04,20,09,56,22.30
2016,04,20,09,57,22.30
2016,04,20,09,58,22.40
2016,04,20,09,59,22.40
2016,04,20,10,00,22.40
2016,04,20,10,01,22.40
2016,04,20,10,02,22.40
2016,04,20,10,03,22.40
2016,04,20,10,04,22.40
2016,04,20,10,05,22.40
2016,04,20,10,06,22.40
2016,04,20,10,07,22.40
2016,04,20,10,08,22.40
2016,04,20,10,09,22.40
2016,04,20,10,10,22.40
2016,04,20,10,11,22.50
2016,04,20,10,12,22.60
2016,04,20,10,13,22.60
2016,04,20,10,14,22.70
2016,04,20,10,15,22.80
2016,04,20,10,16,22.80
2016,04,20,10,17,22.90
2016,04,20,10,18,22.90
2016,04,20,10,19,22.90
2016,04,20,10,20,22.90
2016,04,20,10,21,22.90
2016,04,20,10,22,22.90
2016,04,20,10,23,22.90
2016,04,20,10,24,23.00
2016,04,20,10,25,23.10
2016,04,20,10,26,23.10
2016,04,20,10,27,23.20
2016,04,20,10,28,23.20
2016,04,20,10,29,23.20
2016,04,20,10,30,23.20
2016,04,20,10,31,23.20
2016,04,20,10,32,23.00
2016,04,20,10,33,22.60
2016,04,20,10,34,22.20
2016,04,20,10,35,21.80
2016,04,20,10,36,21.40
2016,04,20,10,37,21.10
2016,04,20,10,38,20.80
2016,04,20,10,39,20.60
2016,04,20,10,40,20.40
2016,04,20,10,41,20.20
2016,04,20,10,42,20.10
2016,04,20,10,43,19.90
2016,04,20,10,44,19.90
2016,04,20,10,45,19.70
2016,04,20,10,46,19.50
2016,04,20,10,47,19.40
2016,04,20,10,48,19.20
2016,04,20,10,49,19.00
2016,04,20,10,50,18.90
2016,04,20,10,51,18.80
2016,04,20,10,52,18.70
2016,04,20,10,53,18.70
2016,04,20,10,54,18.60
2016,04,20,10,55,18.60
2016,04,20,10,56,18.60
2016,04,20,10,57,18.60
2016,04,20,10,58,18.40
2016,04,20,10,59,18.30
2016,04,20,11,00,18.20
2016,04,20,11,01,18.10
2016,04,20,11,02,18.00
2016,04,20,11,03,17.90
2016,04,20,11,04,18.00
2016,04,20,11,05,18.10
2016,04,20,11,06,18.10
2016,04,20,11,07,18.10
2016,04,20,11,08,18.20
2016,04,20,11,09,18.10
2016,04,20,11,10,18.20
2016,04,20,11,11,18.20
2016,04,20,11,12,18.30
2016,04,20,11,13,18.40
2016,04,20,11,14,18.50
2016,04,20,11,15,18.50
2016,04,20,11,16,18.50
2016,04,20,11,17,18.50
2016,04,20,11,18,18.50
2016,04,20,11,19,18.50
2016,04,20,11,20,18.50
2016,04,20,11,21,18.40
2016,04,20,11,22,18.40
2016,04,20,11,23,18.40
2016,04,20,11,24,18.40
2016,04,20,11,25,18.40
2016,04,20,11,26,18.50
2016,04,20,11,27,18.50
2016,04,20,11,28,18.60
2016,04,20,11,29,18.60
2016,04,20,11,30,18.60
2016,04,20,11,31,18.60
2016,04,20,11,32,18.70
2016,04,20,11,33,18.90
2016,04,20,11,34,19.00
2016,04,20,11,35,19.10
2016,04,20,11,36,19.20
2016,04,20,11,37,19.40
2016,04,20,11,38,19.50
2016,04,20,11,39,19.60
2016,04,20,11,40,19.70
2016,04,20,11,41,19.80
2016,04,20,11,42,19.90
2016,04,20,11,43,20.00
2016,04,20,11,44,20.10
2016,04,20,11,45,20.10
2016,04,20,11,46,20.20
2016,04,20,11,47,20.20
2016,04,20,11,48,20.20
2016,04,20,11,49,20.10
2016,04,20,11,50,20.00
2016,04,20,11,51,19.90
2016,04,20,11,52,20.00
2016,04,20,11,53,20.10
2016,04,20,11,54,20.20
2016,04,20,11,55,20.40
2016,04,20,11,56,20.60
2016,04,20,11,57,20.90
2016,04,20,11,58,21.30
2016,04,20,11,59,21.70
2016,04,20,12,00,22.00
2016,04,20,12,01,22.30
2016,04,20,12,02,22.60
2016,04,20,12,03,22.80
2016,04,20,12,04,23.10
2016,04,20,12,05,23.30
2016,04,20,12,06,23.50
2016,04,20,12,07,23.70
2016,04,20,12,08,23.70
2016,04,20,12,09,23.70
2016,04,20,12,10,23.70
2016,04,20,12,11,23.70
2016,04,20,12,12,23.50
2016,04,20,12,13,23.20
2016,04,20,12,14,22.90
2016,04,20,12,15,22.90
2016,04,20,12,16,23.10
2016,04,20,12,17,23.00
2016,04,20,12,18,22.90
2016,04,20,12,19,22.80
2016,04,20,12,20,22.80
2016,04,20,12,21,23.00
2016,04,20,12,22,23.20
2016,04,20,12,23,23.30
2016,04,20,12,24,23.50
2016,04,20,12,25,23.60
2016,04,20,12,26,23.80
2016,04,20,12,27,23.90
2016,04,20,12,28,24.00
2016,04,20,12,29,24.10
2016,04,20,12,30,24.10
2016,04,20,12,31,24.10
2016,04,20,12,32,24.20
2016,04,20,12,33,24.30
2016,04,20,12,34,24.30
2016,04,20,12,35,24.40
2016,04,20,12,36,24.50
2016,04,20,12,37,24.60
2016,04,20,12,38,24.70
2016,04,20,12,39,24.70
2016,04,20,12,40,24.80
2016,04,20,12,41,24.80
2016,04,20,12,42,24.90
2016,04,20,12,43,24.90
2016,04,20,12,44,25.00
2016,04,20,12,45,25.00
2016,04,20,12,46,25.10
2016,04,20,12,47,25.00
2016,04,20,12,48,25.10
2016,04,20,12,49,25.20
2016,04,20,12,50,25.20
2016,04,20,12,51,25.30
2016,04,20,12,52,25.40
2016,04,20,12,53,25.40
2016,04,20,12,54,25.40
2016,04,20,12,55,25.40
2016,04,20,12,56,25.30
2016,04,20,12,57,25.30
2016,04,20,12,58,25.30
2016,04,20,12,59,25.20
2016,04,20,13,00,25.20
2016,04,20,13,01,25.20
2016,04,20,13,02,25.20
2016,04,20,13,03,25.20
2016,04,20,13,04,25.10
2016,04,20,13,05,25.20
2016,04,20,13,06,25.20
2016,04,20,13,07,25.20
2016,04,20,13,08,25.20
2016,04,20,13,09,25.30
2016,04,20,13,10,25.40
2016,04,20,13,11,25.40
2016,04,20,13,12,25.50
2016,04,20,13,13,25.50
2016,04,20,13,14,25.60
2016,04,20,13,15,25.60
2016,04,20,13,16,25.60
2016,04,20,13,17,25.70
2016,04,20,13,18,25.70
2016,04,20,13,19,25.70
2016,04,20,13,20,25.80
2016,04,20,13,21,25.80
2016,04,20,13,22,25.90
2016,04,20,13,23,25.90
2016,04,20,13,24,25.90
2016,04,20,13,25,25.90
2016,04,20,13,26,26.00
2016,04,20,13,27,26.00
2016,04,20,13,28,26.10
2016,04,20,13,29,26.10
2016,04,20,13,30,26.20
2016,04,20,13,31,26.20
2016,04,20,13,32,26.20
2016,04,20,13,33,26.20
2016,04,20,13,34,26.20
2016,04,20,13,35,26.20
2016,04,20,13,36,26.20
2016,04,20,13,37,26.10
2016,04,20,13,38,26.10
2016,04,20,13,39,26.20
2016,04,20,13,40,26.20
2016,04,20,13,41,26.30
2016,04,20,13,42,26.40
2016,04,20,13,43,26.50
2016,04,20,13,44,26.60
2016,04,20,13,45,26.70
2016,04,20,13,46,26.70
2016,04,20,13,47,26.80
2016,04,20,13,48,26.90
2016,04,20,13,49,27.00
2016,04,20,13,50,27.10
2016,04,20,13,51,27.00
2016,04,20,13,52,26.70
2016,04,20,13,53,26.40
2016,04,20,13,54,26.10
2016,04,20,13,55,25.90
2016,04,20,13,56,25.70
2016,04,20,13,57,25.10
2016,04,20,13,58,24.20
2016,04,20,13,59,23.60
2016,04,20,14,00,23.00
2016,04,20,14,01,22.50
2016,04,20,14,02,22.20
2016,04,20,14,03,21.90
2016,04,20,14,04,21.50
2016,04,20,14,05,21.10
2016,04,20,14,06,20.80
2016,04,20,14,07,20.60
2016,04,20,14,08,20.40
2016,04,20,14,09,20.30
2016,04,20,14,10,20.20
2016,04,20,14,11,20.20
2016,04,20,14,12,20.20
2016,04,20,14,13,20.10
2016,04,20,14,14,20.00
2016,04,20,14,15,19.90
2016,04,20,14,16,19.90
2016,04,20,14,17,19.80
2016,04,20,14,18,19.80
2016,04,20,14,19,19.90
2016,04,20,14,20,19.90
2016,04,20,14,21,19.90
2016,04,20,14,22,20.00
2016,04,20,14,23,20.10
2016,04,20,14,24,20.20
2016,04,20,14,25,20.30
2016,04,20,14,26,20.50
2016,04,20,14,27,20.50
2016,04,20,14,28,20.50
2016,04,20,14,29,20.60
2016,04,20,14,30,20.60
2016,04,20,14,31,20.60
2016,04,20,14,32,20.60
2016,04,20,14,33,20.60
2016,04,20,14,34,20.60
2016,04,20,14,35,20.60
2016,04,20,14,36,20.50
2016,04,20,14,37,20.50
2016,04,20,14,38,20.60
2016,04,20,14,39,20.70
2016,04,20,14,40,20.80
2016,04,20,14,41,20.80
2016,04,20,14,42,20.80
2016,04,20,14,43,20.70
2016,04,20,14,44,20.70
2016,04,20,14,45,20.60
2016,04,20,14,46,20.60
2016,04,20,14,47,20.50
2016,04,20,14,48,20.50
2016,04,20,14,49,20.50
2016,04,20,14,50,20.50
2016,04,20,14,51,20.40
2016,04,20,14,52,20.30
2016,04,20,14,53,20.40
2016,04,20,14,54,20.40
2016,04,20,14,55,20.40
2016,04,20,14,56,20.50
2016,04,20,14,57,20.50
2016,04,20,14,58,20.60
2016,04,20,14,59,20.70
2016,04,20,15,00,20.80
2016,04,20,15,01,20.90
2016,04,20,15,02,21.10
2016,04,20,15,03,21.20
2016,04,20,15,04,21.30
2016,04,20,15,05,21.30
2016,04,20,15,06,21.40
2016,04,20,15,07,21.40
2016,04,20,15,08,21.40
2016,04,20,15,09,21.30
2016,04,20,15,10,21.30
2016,04,20,15,11,21.30
2016,04,20,15,12,21.30
2016,04,20,15,13,21.40
2016,04,20,15,14,21.50
2016,04,20,15,15,21.60
2016,04,20,15,16,21.80
2016,04,20,15,17,21.90
2016,04,20,15,18,22.00
2016,04,20,15,19,22.10
2016,04,20,15,20,22.20
2016,04,20,15,21,22.20
2016,04,20,15,22,22.30
2016,04,20,15,23,22.40
2016,04,20,15,24,22.40
2016,04,20,15,25,22.50
2016,04,20,15,26,22.40
2016,04,20,15,27,22.40
2016,04,20,15,28,22.40
2016,04,20,15,29,22.30
2016,04,20,15,30,22.30
2016,04,20,15,31,22.40
2016,04,20,15,32,22.40
2016,04,20,15,33,22.40
2016,04,20,15,34,22.20
2016,04,20,15,35,22.10
2016,04,20,15,36,22.00
2016,04,20,15,37,21.90
2016,04,20,15,38,21.90
2016,04,20,15,39,21.90
2016,04,20,15,40,21.80
2016,04,20,15,41,21.80
2016,04,20,15,42,21.80
2016,04,20,15,43,21.70
2016,04,20,15,44,21.70
2016,04,20,15,45,21.70
2016,04,20,15,46,21.70
2016,04,20,15,47,21.70
2016,04,20,15,48,21.70
2016,04,20,15,49,21.60
2016,04,20,15,50,21.60
2016,04,20,15,51,21.60
2016,04,20,15,52,21.40
2016,04,20,15,53,21.30
2016,04,20,15,54,21.30
2016,04,20,15,55,21.30
2016,04,20,15,56,21.10
2016,04,20,15,57,21.10
2016,04,20,15,58,21.10
2016,04,20,15,59,21.10
2016,04,20,16,00,21.20
2016,04,20,16,01,21.30
2016,04,20,16,02,21.40
2016,04,20,16,03,21.60
2016,04,20,16,04,21.80
2016,04,20,16,05,22.00
2016,04,20,16,06,22.10
2016,04,20,16,07,22.20
2016,04,20,16,08,22.40
2016,04,20,16,09,22.50
2016,04,20,16,10,22.60
2016,04,20,16,11,22.70
2016,04,20,16,12,22.80
2016,04,20,16,13,22.70
2016,04,20,16,14,22.70
2016,04,20,16,15,22.70
2016,04,20,16,16,22.70
2016,04,20,16,17,22.80
2016,04,20,16,18,22.80
2016,04,20,16,19,22.70
2016,04,20,16,20,22.70
2016,04,20,16,21,22.70
2016,04,20,16,22,22.70
2016,04,20,16,23,22.60
2016,04,20,16,24,22.50
2016,04,20,16,25,22.30
2016,04,20,16,26,22.20
2016,04,20,16,27,22.00
2016,04,20,16,28,21.70
2016,04,20,16,29,21.50
2016,04,20,16,30,21.20
2016,04,20,16,31,20.90
2016,04,20,16,32,20.70
2016,04,20,16,33,20.60
2016,04,20,16,34,20.50
2016,04,20,16,35,20.40
2016,04,20,16,36,20.30
2016,04,20,16,37,20.10
2016,04,20,16,38,20.00
2016,04,20,16,39,19.90
2016,04,20,16,40,19.90
2016,04,20,16,41,19.80
2016,04,20,16,42,19.80
2016,04,20,16,43,19.70
2016,04,20,16,44,19.60
2016,04,20,16,45,19.60
2016,04,20,16,46,19.60
2016,04,20,16,47,19.70
2016,04,20,16,48,19.80
2016,04,20,16,49,19.80
2016,04,20,16,50,19.90
2016,04,20,16,51,19.90
2016,04,20,16,52,19.90
2016,04,20,16,53,19.90
2016,04,20,16,54,20.00
2016,04,20,16,55,20.10
2016,04,20,16,56,20.20
2016,04,20,16,57,20.30
2016,04,20,16,58,20.30
2016,04,20,16,59,20.40
2016,04,20,17,00,20.50
2016,04,20,17,01,20.60
2016,04,20,17,02,20.70
2016,04,20,17,03,20.80
2016,04,20,17,04,20.90
2016,04,20,17,05,21.00
2016,04,20,17,06,21.10
2016,04,20,17,07,21.20
2016,04,20,17,08,21.30
2016,04,20,17,09,21.50
2016,04,20,17,10,21.60
2016,04,20,17,11,21.60
2016,04,20,17,12,21.60
2016,04,20,17,13,21.60
2016,04,20,17,14,21.70
2016,04,20,17,15,21.80
2016,04,20,17,16,21.80
2016,04,20,17,17,21.90
2016,04,20,17,18,22.00
2016,04,20,17,19,22.00